• In Uzbekistan
  • List of Countries
  • For 7 days
  • Water Temperature
  • Satellite Maps
  • Weather Map
  • Weather Widgets
  • user-avatar
    Login

    Hourly Weather Caconde

    Today, 25 September, Tuesday

    Time Temperature Precipitation Wind Pressure Humidity
    00:00 +24°C° 0 mm 3 mps 692 mmHg 58%
    01:00 +22°C° 0 mm 3 mps 692 mmHg 63%
    02:00 +22°C° 0 mm 3 mps 692 mmHg 69%
    03:00 +21°C° 0 mm 2 mps 692 mmHg 73%
    04:00 +21°C° 0 mm 2 mps 691 mmHg 75%
    05:00 +20°C° 0 mm 2 mps 691 mmHg 78%
    06:00 +20°C° 0 mm 3 mps 691 mmHg 80%
    07:00 +22°C° 0 mm 3 mps 692 mmHg 72%
    08:00 +25°C° 0 mm 3 mps 692 mmHg 65%
    09:00 +28°C° 0 mm 4 mps 693 mmHg 57%
    10:00 +29°C° 0 mm 4 mps 693 mmHg 52%
    11:00 +31°C° 0 mm 3 mps 693 mmHg 47%
    12:00 +33°C° 0 mm 3 mps 693 mmHg 42%
    13:00 +34°C° 0 mm 2 mps 692 mmHg 39%
    14:00 +34°C° 0 mm 2 mps 692 mmHg 37%
    15:00 +34°C° 0 mm 1 mps 691 mmHg 34%
    16:00 +32°C° 0 mm 1 mps 691 mmHg 39%
    17:00 +30°C° 0 mm 1 mps 691 mmHg 44%
    18:00 +29°C° 0 mm 1 mps 690 mmHg 48%
    19:00 +28°C° 0 mm 2 mps 691 mmHg 51%
    20:00 +27°C° 0 mm 2 mps 691 mmHg 54%
    21:00 +26°C° 0 mm 2 mps 691 mmHg 56%
    22:00 +25°C° 0.3 mm 3 mps 692 mmHg 59%
    23:00 +25°C° 0.3 mm 3 mps 692 mmHg 62%

    Tomorrow, 26 September, Wednesday

    Time Temperature Precipitation Wind Pressure Humidity
    00:00 +24°C° 0.3 mm 3 mps 692 mmHg 65%
    01:00 +24°C° 0.1 mm 3 mps 691 mmHg 65%
    02:00 +24°C° 0.1 mm 3 mps 691 mmHg 65%
    03:00 +22°C° 0.1 mm 3 mps 691 mmHg 65%
    04:00 +22°C° 0 mm 3 mps 691 mmHg 66%
    05:00 +22°C° 0 mm 3 mps 691 mmHg 67%
    06:00 +21°C° 0 mm 3 mps 691 mmHg 68%
    07:00 +23°C° 0 mm 4 mps 692 mmHg 64%
    08:00 +25°C° 0 mm 4 mps 692 mmHg 60%
    09:00 +26°C° 0 mm 4 mps 693 mmHg 56%
    10:00 +27°C° 0 mm 4 mps 692 mmHg 53%
    11:00 +29°C° 0 mm 4 mps 692 mmHg 49%
    12:00 +30°C° 0 mm 4 mps 692 mmHg 46%
    13:00 +32°C° 0 mm 4 mps 692 mmHg 44%
    14:00 +31°C° 0 mm 3 mps 691 mmHg 42%
    15:00 +33°C° 0 mm 3 mps 690 mmHg 41%
    16:00 +30°C° 0 mm 3 mps 690 mmHg 47%
    17:00 +28°C° 0 mm 2 mps 690 mmHg 52%
    18:00 +27°C° 0 mm 2 mps 690 mmHg 58%
    19:00 +26°C° 0.1 mm 2 mps 690 mmHg 61%
    20:00 +25°C° 0.1 mm 2 mps 690 mmHg 63%
    21:00 +24°C° 0.1 mm 2 mps 690 mmHg 66%
    22:00 +24°C° 0.2 mm 2 mps 691 mmHg 66%
    23:00 +23°C° 0.2 mm 2 mps 691 mmHg 66%

    Day after tomorrow, 27 September, Thursday

    Time Temperature Precipitation Wind Pressure Humidity
    00:00 +23°C° 0.2 mm 2 mps 691 mmHg 67%
    01:00 +23°C° 0.2 mm 2 mps 690 mmHg 68%
    02:00 +21°C° 0.2 mm 2 mps 690 mmHg 69%
    03:00 +21°C° 0.2 mm 3 mps 690 mmHg 70%
    04:00 +21°C° 0 mm 3 mps 690 mmHg 70%
    05:00 +20°C° 0 mm 3 mps 690 mmHg 70%
    06:00 +20°C° 0 mm 3 mps 690 mmHg 70%
    07:00 +22°C° 0 mm 3 mps 691 mmHg 64%
    08:00 +25°C° 0 mm 3 mps 692 mmHg 58%
    09:00 +27°C° 0 mm 3 mps 692 mmHg 52%
    10:00 +29°C° 0 mm 3 mps 692 mmHg 47%
    11:00 +30°C° 0 mm 3 mps 692 mmHg 42%
    12:00 +32°C° 0 mm 2 mps 692 mmHg 37%
    13:00 +32°C° 0 mm 2 mps 692 mmHg 37%
    14:00 +34°C° 0 mm 2 mps 691 mmHg 36%
    15:00 +34°C° 0 mm 2 mps 690 mmHg 35%
    16:00 +31°C° 0 mm 2 mps 690 mmHg 40%
    17:00 +30°C° 0 mm 2 mps 690 mmHg 44%
    18:00 +28°C° 0 mm 1 mps 689 mmHg 49%
    19:00 +27°C° 0.1 mm 1 mps 690 mmHg 51%
    20:00 +26°C° 0.1 mm 1 mps 690 mmHg 54%
    21:00 +25°C° 0.1 mm 1 mps 691 mmHg 57%
    22:00 +25°C° 0.1 mm 1 mps 691 mmHg 60%
    23:00 +25°C° 0.1 mm 1 mps 691 mmHg 63%

    28 September, Friday

    Time Temperature Precipitation Wind Pressure Humidity
    00:00 +24°C° 0.1 mm 1 mps 691 mmHg 65%
    01:00 +24°C° 0.1 mm 2 mps 691 mmHg 68%
    02:00 +23°C° 0.1 mm 2 mps 690 mmHg 71%
    03:00 +23°C° 0.1 mm 2 mps 690 mmHg 75%
    04:00 +23°C° 0.1 mm 2 mps 690 mmHg 77%
    05:00 +22°C° 0.1 mm 1 mps 691 mmHg 80%
    06:00 +22°C° 0.1 mm 1 mps 691 mmHg 83%
    07:00 +23°C° 0.2 mm 1 mps 692 mmHg 78%
    08:00 +25°C° 0.2 mm 2 mps 692 mmHg 73%
    09:00 +26°C° 0.2 mm 2 mps 693 mmHg 69%
    10:00 +27°C° 0.2 mm 2 mps 693 mmHg 63%
    11:00 +29°C° 0.2 mm 2 mps 693 mmHg 57%
    12:00 +30°C° 0.2 mm 2 mps 693 mmHg 51%
    13:00 +31°C° 0.3 mm 2 mps 692 mmHg 48%
    14:00 +31°C° 0.3 mm 2 mps 692 mmHg 45%
    15:00 +32°C° 0.3 mm 2 mps 691 mmHg 42%
    16:00 +31°C° 0.3 mm 2 mps 691 mmHg 47%
    17:00 +29°C° 0.3 mm 2 mps 691 mmHg 52%
    18:00 +28°C° 0.3 mm 2 mps 691 mmHg 57%
    19:00 +26°C° 0.9 mm 2 mps 691 mmHg 66%
    20:00 +24°C° 0.9 mm 2 mps 691 mmHg 75%
    21:00 +22°C° 0.9 mm 3 mps 691 mmHg 83%
    22:00 +21°C° 1 mm 3 mps 691 mmHg 85%
    23:00 +21°C° 1 mm 3 mps 691 mmHg 87%

    29 September, Saturday

    Time Temperature Precipitation Wind Pressure Humidity
    00:00 +20°C° 1 mm 3 mps 691 mmHg 88%
    01:00 +20°C° 1 mm 3 mps 691 mmHg 89%
    02:00 +20°C° 1 mm 3 mps 691 mmHg 89%
    03:00 +20°C° 1 mm 3 mps 691 mmHg 90%
    04:00 +20°C° 0.4 mm 3 mps 691 mmHg 90%
    05:00 +20°C° 0.4 mm 3 mps 691 mmHg 90%
    06:00 +20°C° 0.4 mm 3 mps 692 mmHg 91%
    07:00 +21°C° 0.1 mm 3 mps 692 mmHg 86%
    08:00 +22°C° 0.1 mm 3 mps 693 mmHg 82%
    09:00 +23°C° 0.1 mm 4 mps 693 mmHg 77%
    10:00 +26°C° 0.4 mm 4 mps 693 mmHg 72%
    11:00 +27°C° 0.4 mm 4 mps 693 mmHg 66%
    12:00 +28°C° 0.4 mm 4 mps 692 mmHg 61%
    13:00 +29°C° 1 mm 3 mps 692 mmHg 60%
    14:00 +29°C° 1 mm 3 mps 691 mmHg 59%
    15:00 +29°C° 1 mm 2 mps 691 mmHg 58%
    16:00 +28°C° 0.5 mm 2 mps 691 mmHg 63%
    17:00 +26°C° 0.5 mm 1 mps 691 mmHg 67%
    18:00 +25°C° 0.5 mm 1 mps 691 mmHg 72%
    19:00 +24°C° 0.1 mm 1 mps 691 mmHg 75%
    20:00 +23°C° 0.1 mm 2 mps 691 mmHg 78%
    21:00 +23°C° 0.1 mm 2 mps 691 mmHg 81%
    22:00 +21°C° 0 mm 2 mps 691 mmHg 82%
    23:00 +21°C° 0 mm 2 mps 691 mmHg 83%

    30 September, Sunday

    Time Temperature Precipitation Wind Pressure Humidity
    00:00 +21°C° 0 mm 3 mps 691 mmHg 83%
    01:00 +21°C° 0.3 mm 3 mps 691 mmHg 84%
    02:00 +21°C° 0.3 mm 3 mps 691 mmHg 85%
    03:00 +20°C° 0.3 mm 3 mps 690 mmHg 87%
    04:00 +20°C° 0.7 mm 3 mps 691 mmHg 88%
    05:00 +20°C° 0.7 mm 3 mps 691 mmHg 90%
    06:00 +20°C° 0.7 mm 3 mps 692 mmHg 91%
    07:00 +20°C° 2.2 mm 2 mps 692 mmHg 92%
    08:00 +20°C° 2.2 mm 2 mps 692 mmHg 92%
    09:00 +20°C° 2.2 mm 2 mps 693 mmHg 92%
    10:00 +21°C° 2.3 mm 3 mps 693 mmHg 91%
    11:00 +21°C° 2.3 mm 3 mps 692 mmHg 89%
    12:00 +22°C° 2.3 mm 3 mps 692 mmHg 88%
    13:00 +22°C° 0.8 mm 3 mps 692 mmHg 85%
    14:00 +24°C° 0.8 mm 3 mps 691 mmHg 83%
    15:00 +24°C° 0.8 mm 3 mps 691 mmHg 81%
    16:00 +24°C° 0.6 mm 3 mps 691 mmHg 84%
    17:00 +23°C° 0.6 mm 2 mps 691 mmHg 87%
    18:00 +21°C° 0.6 mm 2 mps 691 mmHg 90%
    19:00 +21°C° 0.1 mm 2 mps 691 mmHg 90%
    20:00 +21°C° 0.1 mm 3 mps 692 mmHg 90%
    21:00 +20°C° 0.1 mm 3 mps 692 mmHg 90%
    22:00 +20°C° 0.3 mm 3 mps 692 mmHg 91%
    23:00 +20°C° 0.3 mm 2 mps 692 mmHg 92%
    Show more